This is the latest recevied weather packets stored in our database for station/object KG7MRB. If no packets are shown the sender has not sent any weather packets the latest 10 day(s).
| Time | Temp. | Humidity | Pressure | Rain* | Wind** | Luminosity | Snow |
|---|---|---|---|---|---|---|---|
| 1778107302 | 11.67° C | 95% | 1038.4 hPa | 0 mm | - | 42 W/m² | - |
| 1778106999 | 11.67° C | 95% | 1038.6 hPa | 0 mm | - | 42 W/m² | - |
| 1778106694 | 11.67° C | 96% | 1038.3 hPa | 0 mm | - | 43 W/m² | - |
| 1778106392 | 11.67° C | 95% | 1038.3 hPa | 0 mm | - | 43 W/m² | - |
| 1778106088 | 11.67° C | 96% | 1038.4 hPa | 0 mm | - | 53 W/m² | - |
| 1778105786 | 11.67° C | 96% | 1038.3 hPa | 0 mm | - | 48 W/m² | - |
| 1778105484 | 11.67° C | 97% | 1038.2 hPa | 0 mm | - | 51 W/m² | - |
| 1778105180 | 11.67° C | 97% | 1038.4 hPa | 0 mm | - | 43 W/m² | - |
| 1778104875 | 11.67° C | 97% | 1038.4 hPa | 0 mm | - | 51 W/m² | - |
| 1778104572 | 11.67° C | 98% | 1038.2 hPa | 0 mm | - | 62 W/m² | - |
| 1778104268 | 11.11° C | 98% | 1038.3 hPa | 0 mm | - | 51 W/m² | - |
| 1778103965 | 11.11° C | 98% | 1038.3 hPa | 0 mm | - | 45 W/m² | - |
| 1778103662 | 11.67° C | 98% | 1038.3 hPa | 0 mm | - | 60 W/m² | - |
| 1778103360 | 11.67° C | 97% | 1038.3 hPa | 0 mm | - | 47 W/m² | - |
| 1778103057 | 11.67° C | 97% | 1038.5 hPa | 0 mm | - | 46 W/m² | - |
| 1778102754 | 11.67° C | 97% | 1038.5 hPa | 0 mm | - | 45 W/m² | - |
| 1778102449 | 11.67° C | 97% | 1038.2 hPa | 0 mm | - | 48 W/m² | - |
| 1778102145 | 11.11° C | 97% | 1038.3 hPa | 0 mm | - | 48 W/m² | - |
| 1778101842 | 11.67° C | 97% | 1038.3 hPa | 0 mm | - | 45 W/m² | - |
| 1778101539 | 11.67° C | 97% | 1038.3 hPa | 0 mm | - | 46 W/m² | - |
| 1778101236 | 11.67° C | 96% | 1038.4 hPa | 0 mm | - | 54 W/m² | - |
| 1778100932 | 11.67° C | 97% | 1038.3 hPa | 0 mm | - | 51 W/m² | - |
| 1778100627 | 11.67° C | 97% | 1038.3 hPa | 0 mm | - | 54 W/m² | - |
| 1778100326 | 11.67° C | 97% | 1038.4 hPa | 0 mm | - | 44 W/m² | - |
| 1778100022 | 11.67° C | 97% | 1038.3 hPa | 0 mm | - | 47 W/m² | - |
* Rain latest hour (hover to see other rain measurements)
** Current wind speed in m/s (hover to see current wind gust speed)